sat.trackr.live / text

‹ back to catalog

STARLINK-30833

NORAD 58152 · 2023-166C

PAYLOAD ACTIVE UNKNOWN

§ Identity

Operator
Country
US
Launch date
2023-10-29
Launch site
AFWTR
Launch vehicle
Mass (kg)
RCS (m²)

Purposes: comms

External: N2YO · Heavens-Above · Gunter

§ Orbital elements

Epoch: 2026-09-20T15:43:40.724544Z

Period
94.01 min
Inclination
53.1601°
Eccentricity
0.0001266
Mean motion
15.31713174 rev/d
Perigee alt
469.8 km
Apogee alt
471.6 km
Semi-major
6,848.8 km
B*
4.8898e-5
RAAN
32.9925°
Arg perigee
87.2365°
Mean anomaly
272.8781°
Rev number
16,304

§ Raw data

STARLINK-308331 58152U 23166C   26263.65533246  .00001153  00000+0  48898-4 0  99922 58152  53.1601  32.9925 0001266  87.2365 272.8781 15.31713174163047

JSON: /api/v1/satellites/58152 · /tle

For live sub-satellite position, see the globe view (requires WebGL).

§ Visibility from observer

Set your observer location to see the next 7 days of passes ≥ 10°. The values pass through the URL so the page stays shareable.

No JS? Fill the form by hand. The geolocation button needs JavaScript.